EHI
0 0 0 0 0 0 0 0 0 0 0 0 0 0 0 0 0 0 0 0 0 0 0 0 0 0 0 0 0 0 0 0 0 0 0 0 0 0 0 0 0 0 0
0 0 0 0 0 0 0 0 0 0 0 0 0 0 0 0 0 0 0 0 0 0 0 0 0 0 0 0 0 0 0 0 0 0 0 0 0 0 0 0 0 0 0
0 0 0 0 0 0 0 0 0 0 0 0 0 0 0 0 0 0 0 0 0 0 0 0 0 0 0 0 0 0 0 0 0 0 0 0 0 0 0 0 0 0 0
0 0 0 0 0 0 0 0 0 0 0 0 0 0 0 0 0 0 0 0 0 0 0 0 0 0 0 0 0 0 0 0 0 0 0 0 0 0 0 0 0 0 0
0 0 0 0 0 0 0 0 0 0 0 0 0 0 0 0 0 0 0 0 0 0 0 0 0 0 0 0 0 0 0 0 0 0 0 0 0 0 0 0 0 0 0
0 0 0 0 0 0 0 0 0 0 0 0 0 0 0 0 0 0 0 0 0 0 0 0 0 0 0 0 0 0 0 0 0 0 0 0 0 0 0 0 0 0 0
0 0 0 0 0 0 0 0 0 0 0 0 0 0 0 0 0 0 0 0 0 0 0 0 0 0 0 0 0 0 0 0 0 0 0 0 0 0 0 0 0 0 0
0 0 0 0 0 0 0 0 0 0 0 0 0 0 0 0 0 0 0 0 0 0 0 0 0 0 0 0 0 0 0 0 0 0 0 0 0 0 0 0 0 0 0
0 0 0 0 0 0 0 0 0 0 0 0 0 0 0 0 0 0 0 0 0 0 0 0 0 0 0 0 0 0 0 0 0 0 0 0 0 0 0 0 0 0 0
0 0 0 0 0 0 0 0 0 0 0 0 0 0 0 0 0 0 0 0 0 0 0 0 0 0 0 0 0 0 0 0 0 0 0 0 0 0 0 0 0 0 0
0 0 0 0 0 0 0 0 0 0 0 0 0 0 0 0 0 0 0 0 0 0 0 0 0 0 0 0 0 0 0 0 0 0 0 0 0 0 0 0 0 0 0
0 0 0 0 0 0 0 0 0 0 0 0 0 0 0 0 0 0 0 0 0 0 0 0 0 0 0 0 0 0 0 0 0 0 0 0 0 0 0 0 0 0 0
0 0 0 0 0 0 0 0 0 0 0 0 0 0 0 0 0 0 0 0 0 0 0 0 0 0 0 0 0 0 0 0 0 0 0 0 0 0 0 0 0 0 0
0 0 0 0 0 0 0 0 0 0 0 0 0 0 0 0 0 0 0 0 0 0 0 0 0 0 0 0 0 0 0 0 0 0 0 0 0 0 0 0 0 0 0
0 0 0 0 0 0 0 0 0 0 0 0 0 0 0 0 0 0 0 0 0 0 0 0 0 0 0 0 0 0 0 0 0 0 0 0 0 0 0 0 0 0 0
0 0 0 0 0 0 0 0 0 0 0 0 0 0 0 0 0 0 0 0 0 0 0 0 0 0 0 0 0 0 0 0 0 0 0 0 0 0 0 0 0 0 0
0 0 0 0 0 0 0 0 0 0 0 0 0 0 0 0 0 0 0 0 0 0 0 0 0 0 0 0 0 0 0 0 0 0 0 0 0 0 0 0 0 0 0
0 0 0 0 0 0 0 0 0 0 0 0 0 0 0 0 0 0 0 0 0 0 0 0 0 0 0 0 0 0 0 0 0 0 0 0 0 0 0 0 0 0 0
0 0 0 0 0 0 0 0 0 0 0 0 0 0 0 0 0 0 0 0 0 0 0 0 0 0 0 0 0 0 0 0 0 0 0 0 0 0 0 0 0 0 0
0 0 0 0 0 0 0 0 0 0 0 0 0 0 0 0 0 0 0 0 0 0 0 0 0 0 0 0 0 0 0 0 0 0 0 0 0 0 0 0 0 0 0
0 0 0 0 0 0 0 0 0 0 0 0 0 0 0 0 0 0 0 0 0 0 0 0 0 0 0 0 0 0 0 0 0 0 0 0 0 0 0 0 0 0 0
0 0 0 0 0 0 0 0 0 0 0 0 0 0 0 0 0 0 0 0 0 0 0 0 0 0 0 0 0 0 0 0 0 0 0 0 0 0 0 0 0 0 0
0 0 0 0 0 0 0 0 0 0 0 0 0 0 0 0 0 0 0 0 0 0 0 0 0 0 0 0 0 0 0 0 0 0 0 0 0 0 0 0 0 0 0
0 0 0 0 0 0 0 0 0 0 0 0 0 0 0 0 0 0 0 0 0 0 0 0 0 0 0 0 0 0 0 0 0 0 0 0 0 0 0 0 0 0 0
0 0 0 0 0 0 0 0 0 0 0 0 0 0 0 0 0 0 0 0 0 0 0 0 0 0 0 0 0 0 0 0 0 0 0 0 0 0 0 0 0 0 0
0 0 0 0 0 0 0 0 0 0 0 0 0 0 0 0 0 0 0 0 0 0 0 0 0 0 0 0 0 0 0 0 0 0 0 0 0 0 0 0 0 0 0
Wind_Speed
3 3 3 3 3 3 3 4 3 3 3 3 3 2 2 2 2 2 2 2 3 3 3 3 4 3 2 2 2 2 2 3 5 5 2 2 3 3 4 3 3 4 4
3 3 3 3 3 3 3 3 3 3 3 3 3 3 3 3 2 3 3 3 3 4 4 3 4 3 3 2 2 3 3 3 4 6 4 3 3 3 4 4 4 4 4
3 3 3 3 3 3 3 3 3 3 3 3 3 3 3 3 3 3 4 4 4 4 4 4 4 4 4 3 3 3 3 3 3 4 5 3 3 3 3 4 4 4 4
3 3 3 4 4 4 3 3 3 3 3 3 3 4 4 4 4 4 4 4 4 4 5 5 5 5 5 5 4 4 3 3 3 4 4 4 3 3 2 3 4 3 4
3 3 4 4 3 3 3 3 3 3 4 3 3 3 3 3 4 4 4 4 4 4 5 5 6 7 8 7 5 4 4 4 3 4 4 4 4 3 3 3 4 4 4
4 4 3 3 3 4 4 4 4 4 3 3 4 4 4 4 6 7 5 4 4 5 5 5 5 6 8 10 10 9 7 6 5 5 5 5 6 4 3 3 3 4 5
4 4 3 4 4 4 4 4 4 4 4 4 4 4 5 6 8 8 8 5 4 5 5 5 5 5 7 5 7 9 9 11 11 7 6 7 6 5 4 4 4 5 6
4 4 3 4 4 4 4 4 5 4 4 4 5 5 5 6 8 9 8 5 5 5 5 6 6 5 5 5 5 5 6 6 7 6 6 6 6 5 5 5 5 5 5
4 4 4 4 5 5 5 5 4 3 4 4 4 5 5 6 8 9 8 4 4 5 5 5 6 6 9 9 6 5 6 5 7 9 9 9 10 10 6 3 3 3 5
5 5 5 4 5 6 6 5 4 4 4 4 5 5 6 6 8 9 8 3 4 5 4 5 8 9 10 10 6 5 6 6 4 4 5 6 6 7 8 5 4 4 4
5 4 4 4 5 5 5 4 4 4 4 4 5 5 5 7 8 10 10 4 4 4 4 4 5 10 11 10 8 6 8 6 4 4 4 4 3 3 4 4 4 4 5
4 4 5 4 4 4 4 4 4 4 4 4 4 5 4 5 7 8 11 10 8 5 5 4 5 9 11 11 8 8 10 7 3 3 3 4 3 3 3 3 4 4 5
4 4 4 4 4 4 4 4 3 3 4 4 4 5 5 4 5 10 10 11 10 6 5 8 9 10 10 8 9 9 7 3 3 3 4 4 3 3 3 3 3 4 4
4 5 4 4 4 4 3 4 4 4 4 4 5 5 5 4 4 4 4 5 6 5 4 7 9 9 7 6 6 5 3 3 4 4 4 3 2 2 3 3 3 3 3
4 4 4 4 4 4 4 4 5 5 6 6 5 5 5 6 7 8 5 4 4 4 4 3 3 2 3 3 3 3 3 3 4 3 3 3 3 3 3 2 3 3 3
4 4 4 4 3 4 4 4 6 7 9 11 10 8 7 9 10 10 10 9 9 8 5 3 3 4 4 4 4 3 3 4 4 3 3 4 4 3 3 3 3 3 4
5 5 4 4 4 4 4 4 4 5 7 9 10 11 11 10 10 10 10 9 9 7 4 3 4 4 4 4 4 4 4 4 3 3 4 4 3 3 3 3 3 3 4
5 5 5 4 4 4 4 4 4 4 4 4 6 10 10 10 10 9 9 6 5 4 3 4 4 4 4 4 4 4 4 3 3 4 4 4 4 3 3 4 4 4 4
4 4 4 4 4 4 4 4 4 5 5 5 4 5 8 8 9 9 7 4 4 4 4 4 4 4 4 4 4 4 4 4 4 4 4 4 4 3 4 4 4 6 5
4 7 6 4 4 4 4 4 4 5 5 5 5 4 3 3 4 4 4 4 4 4 4 4 4 4 4 4 4 4 4 4 4 4 4 4 4 4 4 4 4 4 4
4 5 7 5 4 4 4 5 5 5 5 5 5 5 7 5 5 5 4 4 4 5 4 4 4 4 4 3 3 4 4 4 4 4 4 3 3 3 3 3 4 4 3
4 4 4 4 4 4 4 4 4 5 5 6 5 5 9 5 4 4 4 4 4 4 4 4 4 4 4 4 4 4 4 4 4 4 3 3 3 3 3 3 3 3 3
4 4 4 4 4 6 6 4 4 5 5 5 5 4 4 4 4 4 4 4 3 3 3 3 4 3 3 3 3 4 4 4 4 4 4 4 4 3 3 4 4 4 3
4 5 5 4 4 4 4 4 4 5 5 5 5 5 4 4 4 5 4 4 3 3 3 3 4 5 5 4 3 3 3 4 4 4 5 5 4 3 3 3 3 4 3
4 4 5 4 4 4 4 4 4 5 5 5 5 4 4 4 4 4 4 4 4 4 4 4 3 4 5 5 5 4 5 6 6 4 4 4 4 4 4 3 3 3 3
4 4 4 4 4 4 4 4 4 4 4 4 4 4 4 4 4 4 4 3 3 3 3 3 4 5 5 5 5 6 7 7 7 6 4 3 3 3 3 3 3 3 3
Wind_Direction
185 182 179 183 181 178 186 198 196 195 193 198 203 205 217 224 223 220 235 236 238 253 250 241 250 244 241 241 235 236 237 229 255 274 265 282 285 292 304 307 303 302 302
184 178 184 181 176 184 200 207 197 198 202 204 204 209 223 226 223 224 238 242 239 246 251 247 253 248 241 238 234 237 241 235 241 268 279 278 272 276 285 295 303 301 295
174 176 182 188 190 201 210 210 206 205 210 210 206 215 226 229 229 231 234 242 242 243 241 242 249 242 247 243 235 237 243 250 241 252 272 273 276 282 291 293 290 290 291
174 181 195 206 206 210 212 210 212 210 213 217 221 225 229 234 236 235 232 240 245 247 242 240 241 236 238 240 242 238 237 244 245 251 267 274 274 274 272 288 297 292 290
179 194 213 217 212 208 209 213 215 217 222 222 225 234 237 238 237 234 234 238 240 247 249 244 243 242 244 246 245 235 227 236 243 250 262 272 271 272 268 272 283 295 289
191 211 219 218 218 216 217 216 216 222 226 225 232 235 240 244 251 253 250 240 237 241 249 251 249 250 252 257 258 252 242 240 240 244 255 256 262 258 260 265 275 291 291
201 213 215 217 223 227 223 218 221 225 226 231 238 238 244 249 256 259 257 252 238 240 242 246 254 253 254 245 255 259 258 257 252 245 247 250 253 247 249 260 260 265 268
211 221 220 219 228 230 225 227 229 225 224 231 239 241 247 254 258 261 263 260 248 244 241 238 243 249 246 246 244 251 253 256 257 252 243 249 248 241 235 246 254 266 272
220 227 227 221 226 227 229 235 233 227 234 237 239 239 245 257 256 259 261 252 251 252 249 243 240 243 252 256 249 249 259 261 264 260 259 260 258 256 250 246 254 269 280
228 230 230 224 227 228 230 235 234 229 237 240 246 242 240 248 254 259 260 248 255 258 253 246 247 250 255 255 243 239 254 259 255 266 267 268 262 258 254 241 232 249 267
232 230 229 227 231 232 233 234 231 234 240 243 250 253 246 247 257 259 260 250 242 253 255 251 247 254 257 256 254 242 250 259 246 246 256 260 259 256 255 245 232 233 245
225 227 232 233 238 237 228 235 229 224 237 248 254 263 258 252 254 259 259 258 254 251 253 252 250 255 257 258 256 251 257 259 241 241 251 256 254 254 254 251 246 244 244
226 232 237 241 243 233 223 228 235 227 232 245 246 257 266 262 258 262 263 264 261 257 253 253 258 261 261 258 255 256 253 237 228 243 248 252 247 246 249 259 263 257 263
232 238 236 235 244 241 228 221 223 225 231 241 244 251 261 263 256 251 252 260 261 262 262 262 264 261 255 255 257 251 229 220 229 238 244 247 242 241 247 248 260 264 271
236 240 239 236 234 241 239 230 229 229 226 233 239 239 245 257 254 252 256 251 243 244 258 264 259 252 241 242 241 234 225 225 235 233 237 245 247 251 256 251 248 252 254
239 241 237 236 235 235 243 260 247 243 251 252 251 253 258 259 267 265 265 267 266 262 262 251 249 244 239 235 237 238 232 230 228 231 235 237 241 245 255 257 254 251 256
235 241 239 235 234 235 236 241 264 269 256 255 257 261 263 265 266 265 266 268 266 261 251 245 246 245 242 236 235 236 236 230 221 225 232 236 239 243 247 252 254 258 259
241 242 240 236 234 234 234 236 240 251 267 272 264 263 266 266 266 265 265 267 260 245 237 242 246 246 242 238 238 239 239 232 226 228 232 231 229 237 246 250 249 252 259
244 243 239 238 236 233 232 234 239 243 252 265 273 271 266 268 266 262 258 242 242 246 242 242 243 244 242 238 238 236 232 231 230 230 232 233 231 234 245 247 250 255 260
248 251 252 246 239 236 231 232 238 242 246 250 255 258 259 257 250 248 236 231 236 242 241 243 242 241 240 237 234 231 229 229 226 229 234 234 231 233 242 245 246 249 253
249 252 255 253 242 237 235 236 238 239 243 248 252 252 254 250 248 246 242 237 237 239 239 240 241 238 237 236 233 229 229 230 227 228 230 231 232 239 242 242 246 246 249
244 246 245 245 246 243 242 238 237 239 244 250 257 256 257 254 247 249 248 246 242 239 236 236 239 234 230 228 227 228 230 231 227 223 227 230 234 239 239 238 240 245 243
244 248 251 251 247 252 254 243 239 241 246 248 251 250 248 243 242 245 248 247 242 240 237 233 233 234 231 228 222 220 225 229 225 219 223 230 233 235 234 236 236 239 240
242 244 248 251 249 246 246 246 243 244 246 247 247 245 243 242 243 247 247 245 242 240 237 233 230 230 230 232 232 227 227 229 226 223 220 223 228 232 232 234 235 233 233
244 245 247 248 249 250 249 248 246 245 246 248 248 247 245 241 243 246 242 235 235 238 237 234 232 227 225 228 230 231 230 233 237 231 218 216 218 221 226 229 230 230 230
248 248 249 249 249 249 248 249 249 245 245 247 245 244 244 242 244 243 237 233 234 235 235 235 230 226 227 230 230 231 233 236 238 235 224 210 208 214 217 224 225 223 215